H1 CPF 2 NER 2022 3 24 9 083 01 glonass106 H2 0705201 9106 32275 2022 3 24 0 0 0 2022 3 27 23 45 0 900 1 1 0 0 0 1 H9 10 0 59662 0.00000 0 17582994.116 9046592.169 -16116720.499 10 0 59662 900.00000 0 15472174.438 8737044.778 -18303308.054 10 0 59662 1800.00000 0 13097065.313 8590032.443 -20134459.294 10 0 59662 2700.00000 0 10517173.063 8638612.862 -21574620.475 10 0 59662 3600.00000 0 7798709.025 8904617.847 -22595827.734 10 0 59662 4500.00000 0 5012043.586 9397608.380 -23178248.193 10 0 59662 5400.00000 0 2228995.539 10114360.778 -23310563.832 10 0 59662 6300.00000 0 -479931.307 11038906.018 -22990190.967 10 0 59662 7200.00000 0 -3048250.087 12143121.100 -22223331.262 10 0 59662 8100.00000 0 -5416020.023 13387848.277 -21024853.248 10 0 59662 9000.00000 0 -7532098.492 14724495.857 -19418006.440 10 0 59662 9900.00000 0 -9356023.124 16097054.079 -17433973.224 10 0 59662 10800.00000 0 -10859446.504 17444442.041 -15111266.734 10 0 59662 11700.00000 0 -12027064.508 18703087.604 -12494985.827 10 0 59662 12600.00000 0 -12857000.329 19809632.082 -9635941.238 10 0 59662 13500.00000 0 -13360629.071 20703646.062 -6589669.467 10 0 59662 14400.00000 0 -13561851.162 21330241.870 -3415353.410 10 0 59662 15300.00000 0 -13495846.053 21642472.289 -174670.797 10 0 59662 16200.00000 0 -13207359.629 21603413.928 3069406.918 10 0 59662 17100.00000 0 -12748598.464 21187846.784 6253841.500 10 0 59662 18000.00000 0 -12176820.703 20383458.550 9316756.231 10 0 59662 18900.00000 0 -11551726.156 19191522.217 12198641.178 10 0 59662 19800.00000 0 -10932756.604 17627017.780 14843511.575 10 0 59662 20700.00000 0 -10376421.002 15718192.329 17199996.395 10 0 59662 21600.00000 0 -9933758.960 13505576.396 19222335.901 10 0 59662 22500.00000 0 -9648049.907 11040497.219 20871268.885 10 0 59662 23400.00000 0 -9552864.700 8383150.616 22114792.596 10 0 59662 24300.00000 0 -9670541.871 5600311.422 22928781.076 10 0 59662 25200.00000 0 -10011152.682 2762777.321 23297450.394 10 0 59662 26100.00000 0 -10571998.591 -57348.126 23213662.196 10 0 59662 27000.00000 0 -11337662.313 -2789420.977 22679060.143 10 0 59662 27900.00000 0 -12280610.544 -5366956.885 21704036.803 10 0 59662 28800.00000 0 -13362323.286 -7730154.125 20307531.737 10 0 59662 29700.00000 0 -14534902.679 -9828135.814 18516664.590 10 0 59662 30600.00000 0 -15743094.190 -11620819.057 16366210.028 10 0 59662 31500.00000 0 -16926635.585 -13080334.151 13897924.371 10 0 59662 32400.00000 0 -18022835.247 -14191935.750 11159736.577 10 0 59662 33300.00000 0 -18969271.648 -14954368.983 8204818.909 10 0 59662 34200.00000 0 -19706500.324 -15379676.163 5090555.104 10 0 59662 35100.00000 0 -20180654.326 -15492453.336 1877425.962 10 0 59662 36000.00000 0 -20345828.307 -15328588.843 -1372165.960 10 0 59662 36900.00000 0 -20166145.333 -14933537.862 -4595109.494 10 0 59662 37800.00000 0 -19617418.774 -14360206.509 -7728811.933 10 0 59662 38700.00000 0 -18688338.540 -13666535.451 -10712415.928 10 0 59662 39600.00000 0 -17381131.163 -12912885.671 -13487982.143 10 0 59662 40500.00000 0 -15711665.129 -12159337.195 -16001614.499 10 0 59662 41400.00000 0 -13708996.288 -11463015.139 -18204506.094 10 0 59662 42300.00000 0 -11414371.667 -10875556.049 -20053885.502 10 0 59662 43200.00000 0 -8879732.448 -10440821.467 -21513845.328 10 0 59662 44100.00000 0 -6165777.871 -10192955.054 -22556037.342 10 0 59662 45000.00000 0 -3339670.004 -10154865.042 -23160221.042 10 0 59662 45900.00000 0 -472474.078 -10337195.865 -23314655.448 10 0 59662 46800.00000 0 2363560.052 -10737832.252 -23016326.832 10 0 59662 47700.00000 0 5097763.125 -11341956.810 -22271008.115 10 0 59662 48600.00000 0 7663744.388 -12122658.916 -21093148.760 10 0 59662 49500.00000 0 10001910.981 -13042069.738 -19505597.062 10 0 59662 50400.00000 0 12061704.763 -14052976.094 -17539159.872 10 0 59662 51300.00000 0 13803464.335 -15100845.716 -15232007.794 10 0 59662 52200.00000 0 15199835.425 -16126179.118 -12628936.855 10 0 59662 53100.00000 0 16236671.465 -17067089.262 -9780500.563 10 0 59662 54000.00000 0 16913387.498 -17862000.458 -6742028.852 10 0 59662 54900.00000 0 17242753.387 -18452352.556 -3572552.747 10 0 59662 55800.00000 0 17250135.783 -18785196.053 -333655.818 10 0 59662 56700.00000 0 16972221.617 -18815568.071 2911725.087 10 0 59662 57600.00000 0 16455277.753 -18508548.293 6100526.097 10 0 59662 58500.00000 0 15753020.994 -17840907.315 9170785.112 10 0 59662 59400.00000 0 14924189.169 -16802277.138 12062848.783 10 0 59662 60300.00000 0 14029916.519 -15395793.585 14720533.737 10 0 59662 61200.00000 0 13131024.772 -13638182.870 17092219.110 10 0 59662 62100.00000 0 12285344.641 -11559287.867 19131849.026 10 0 59662 63000.00000 0 11545180.942 -9201053.182 20799825.697 10 0 59662 63900.00000 0 10955028.259 -6616010.815 22063775.955 10 0 59662 64800.00000 0 10549633.250 -3865328.967 22899176.841 10 0 59662 65700.00000 0 10352484.940 -1016504.571 23289828.556 10 0 59662 66600.00000 0 10374796.218 1859205.002 23228166.103 10 0 59662 67500.00000 0 10615019.121 4689505.093 22715403.957 10 0 59662 68400.00000 0 11058914.020 7403829.404 21761511.250 10 0 59662 69300.00000 0 11680169.723 9936034.014 20385018.001 10 0 59662 70200.00000 0 12441548.387 12226908.724 18612656.091 10 0 59662 71100.00000 0 13296507.174 14226402.237 16478841.648 10 0 59662 72000.00000 0 14191228.595 15895469.350 14025008.569 10 0 59662 72900.00000 0 15066974.181 17207464.147 11298805.715 10 0 59662 73800.00000 0 15862662.450 18149021.881 8353172.957 10 0 59662 74700.00000 0 16517562.538 18720393.585 5245313.862 10 0 59662 75600.00000 0 16973989.765 18935220.335 2035584.775 10 0 59662 76500.00000 0 17179889.144 18819757.442 -1213678.039 10 0 59662 77400.00000 0 17091197.448 18411582.116 -4439370.192 10 0 59662 78300.00000 0 16673883.541 17757839.705 -7578846.070 10 0 59662 79200.00000 0 15905580.244 16913103.130 -10571136.681 10 0 59662 80100.00000 0 14776738.268 15936936.407 -13358134.427 10 0 59662 81000.00000 0 13291252.760 14891265.436 -15885721.577 10 0 59662 81900.00000 0 11466535.240 13837667.205 -18104820.473 10 0 59662 82800.00000 0 9333026.934 12834691.781 -19972345.078 10 0 59662 83700.00000 0 6933172.930 11935329.899 -21452035.653 10 0 59662 84600.00000 0 4319898.989 11184732.587 -22515160.740 10 0 59662 85500.00000 0 1554653.650 10618278.540 -23141073.167 10 0 59663 0.00000 0 -1294903.577 10260070.214 -23317609.756 10 0 59663 900.00000 0 -4157474.300 10121921.423 -23041327.254 10 0 59663 1800.00000 0 -6960843.734 10202879.179 -22317569.972 10 0 59663 2700.00000 0 -9634646.504 10489299.110 -21160368.107 10 0 59663 3600.00000 0 -12113057.906 10955471.776 -19592168.151 10 0 59663 4500.00000 0 -14337300.965 11564773.412 -17643400.456 10 0 59663 5400.00000 0 -16257865.483 12271292.871 -15351891.799 10 0 59663 6300.00000 0 -17836347.294 13021866.396 -12762133.808 10 0 59663 7200.00000 0 -19046831.510 13758434.604 -9924421.006 10 0 59663 8100.00000 0 -19876762.582 14420622.271 -6893874.845 10 0 59663 9000.00000 0 -20327265.345 14948431.870 -3729372.485 10 0 59663 9900.00000 0 -20412904.153 15284936.794 -492401.242 10 0 59663 10800.00000 0 -20160890.953 15378859.959 2754138.802 10 0 59663 11700.00000 0 -19609776.334 15186928.184 5947160.386 10 0 59663 12600.00000 0 -18807679.399 14675902.102 9024618.386 10 0 59663 13500.00000 0 -17810131.850 13824195.045 11926718.478 10 0 59663 14400.00000 0 -16677627.844 12623011.694 14597081.201 10 0 59663 15300.00000 0 -15472983.513 11076957.629 16983838.380 10 0 59663 16200.00000 0 -14258617.871 9204093.240 19040640.493 10 0 59663 17100.00000 0 -13093869.866 7035428.781 20727555.543 10 0 59663 18000.00000 0 -12032464.562 4613880.925 22011842.123 10 0 59663 18900.00000 0 -11120234.853 1992733.534 22868582.183 10 0 59663 19800.00000 0 -10393194.113 -766333.977 23281161.666 10 0 59663 20700.00000 0 -9876040.295 -3595569.331 23241590.153 10 0 59663 21600.00000 0 -9581153.738 -6423725.346 22750653.764 10 0 59663 22500.00000 0 -9508130.210 -9178786.847 21817898.590 10 0 59663 23400.00000 0 -9643868.297 -11790733.956 20461445.064 10 0 59663 24300.00000 0 -9963207.043 -14194227.775 18707636.808 10 0 59663 25200.00000 0 -10430086.723 -16331107.591 16590530.480 10 0 59663 26100.00000 0 -10999183.690 -18152596.381 14151236.211 10 0 59663 27000.00000 0 -11617950.321 -19621123.488 11437121.042 10 0 59663 27900.00000 0 -12228973.964 -20711689.145 8500890.422 10 0 59663 28800.00000 0 -12772555.251 -21412714.465 5399565.422 10 0 59663 29700.00000 0 -13189396.716 -21726342.004 2193375.381 10 0 59663 30600.00000 0 -13423287.964 -21668175.185 -1055412.493 10 0 59663 31500.00000 0 -13423673.513 -21266468.030 -4283703.554 10 0 59663 32400.00000 0 -13147994.220 -20560799.912 -7428802.394 10 0 59663 33300.00000 0 -12563702.871 -19600291.895 -10429631.641 10 0 59663 34200.00000 0 -11649868.078 -18441440.205 -13227918.791 10 0 59663 35100.00000 0 -10398298.049 -17145658.552 -15769327.825 10 0 59663 36000.00000 0 -8814136.024 -15776633.115 -18004513.598 10 0 59663 36900.00000 0 -6915901.320 -14397601.566 -19890078.503 10 0 59663 37800.00000 0 -4734973.199 -13068670.575 -21389413.148 10 0 59663 38700.00000 0 -2314538.009 -11844284.304 -22473405.055 10 0 59663 39600.00000 0 291957.483 -10770949.913 -23121002.047 10 0 59663 40500.00000 0 3022783.237 -9885315.062 -23319619.778 10 0 59663 41400.00000 0 5810252.395 -9212677.576 -23065385.845 10 0 59663 42300.00000 0 8583301.222 -8765989.317 -22363215.874 10 0 59663 43200.00000 0 11270216.312 -8545395.554 -21226720.112 10 0 59663 44100.00000 0 13801396.589 -8538328.808 -19677942.074 10 0 59663 45000.00000 0 16112035.937 -8720152.904 -17746933.988 10 0 59663 45900.00000 0 18144615.510 -9055329.976 -15471176.753 10 0 59663 46800.00000 0 19851102.417 -9499061.079 -12894855.124 10 0 59663 47700.00000 0 21194763.466 -9999331.204 -10068001.772 10 0 59663 48600.00000 0 22151518.586 -10499272.198 -7045526.456 10 0 59663 49500.00000 0 22710777.683 -10939743.561 -3886148.968 10 0 59663 50400.00000 0 22875726.197 -11262021.697 -651256.687 10 0 59663 51300.00000 0 22663047.865 -11410483.391 2596290.827 10 0 59663 52200.00000 0 22102096.847 -11335169.355 5793386.615 10 0 59663 53100.00000 0 21233554.626 -10994118.716 8877906.011 10 0 59663 54000.00000 0 20107628.817 -10355374.902 11789916.901 10 0 59663 54900.00000 0 18781870.367 -9398577.287 14472846.518 10 0 59663 55800.00000 0 17318701.542 -8116070.553 16874581.703 10 0 59663 56700.00000 0 15782759.215 -6513484.059 18948481.149 10 0 59663 57600.00000 0 14238165.387 -4609755.872 20654280.012 10 0 59663 58500.00000 0 12745839.761 -2436599.535 21958869.540 10 0 59663 59400.00000 0 11360967.026 -37434.888 22836937.017 10 0 59663 60300.00000 0 10130724.722 2534173.334 23271454.084 10 0 59663 61200.00000 0 9092366.455 5216504.884 23254004.435 10 0 59663 62100.00000 0 8271740.073 7942019.439 22784944.950 10 0 59663 63000.00000 0 7682302.123 10639941.821 21873397.410 10 0 59663 63900.00000 0 7324669.156 13238990.224 20537071.059 10 0 59663 64800.00000 0 7186723.889 15670134.849 18801919.365 10 0 59663 65700.00000 0 7244271.078 17869272.904 16701637.395 10 0 59663 66600.00000 0 7462214.979 19779709.197 14277009.215 10 0 59663 67500.00000 0 7796208.296 21354339.578 11575117.609 10 0 59663 68400.00000 0 8194702.781 22557446.639 8648431.060 10 0 59663 69300.00000 0 8601314.583 23366033.088 5553785.531 10 0 59663 70200.00000 0 8957404.161 23770637.516 2351280.707 10 0 59663 71100.00000 0 9204761.344 23775598.878 -896887.895 10 0 59663 72000.00000 0 9288281.624 23398759.019 -4127637.936 10 0 59663 72900.00000 0 9158520.028 22670616.327 -7278226.670 10 0 59663 73800.00000 0 8774013.961 21632966.452 -10287470.618 10 0 59663 74700.00000 0 8103276.209 20337087.748 -13096934.412 10 0 59663 75600.00000 0 7126373.287 18841548.257 -15652065.552 10 0 59663 76500.00000 0 5836021.620 17209726.529 -17903252.961 10 0 59663 77400.00000 0 4238154.520 15507150.667 -19806788.794 10 0 59663 78300.00000 0 2351935.086 13798767.270 -21325715.111 10 0 59663 79200.00000 0 209213.260 12146254.570 -22430539.321 10 0 59663 80100.00000 0 -2146551.356 10605492.115 -23099804.910 10 0 59663 81000.00000 0 -4661857.176 9224292.434 -23320506.793 10 0 59663 81900.00000 0 -7275154.664 8040489.041 -23088343.560 10 0 59663 82800.00000 0 -9919184.774 7080460.188 -22407801.879 10 0 59663 83700.00000 0 -12523565.536 6358149.455 -21292071.398 10 0 59663 84600.00000 0 -15017520.173 5874623.526 -19762791.599 10 0 59663 85500.00000 0 -17332633.900 5618185.134 -17849635.141 10 0 59664 0.00000 0 -19405525.129 5565035.819 -15589735.481 10 0 59664 900.00000 0 -21180321.282 5680460.195 -13026968.081 10 0 59664 1800.00000 0 -22610833.439 5920481.464 -10211101.784 10 0 59664 2700.00000 0 -23662342.897 6233917.875 -7196832.414 10 0 59664 3600.00000 0 -24312922.177 6564752.982 -4042720.142 10 0 59664 4500.00000 0 -24554236.411 6854719.008 -810050.167 10 0 59664 5400.00000 0 -24391791.457 7045983.470 2438360.711 10 0 59664 6300.00000 0 -23844618.592 7083824.748 5639388.062 10 0 59664 7200.00000 0 -22944409.327 6919182.620 8730829.939 10 0 59664 8100.00000 0 -21734137.198 6510975.066 11652618.699 10 0 59664 9000.00000 0 -20266224.896 5828082.482 14347990.530 10 0 59664 9900.00000 0 -18600334.300 4850914.678 16764589.500 10 0 59664 10800.00000 0 -16800872.636 3572493.601 18855484.598 10 0 59664 11700.00000 0 -14934319.749 1999005.242 20580080.035 10 0 59664 12600.00000 0 -13066488.715 149796.624 21904901.352 10 0 59664 13500.00000 0 -11259834.477 -1943183.024 22804242.494 10 0 59664 14400.00000 0 -9570922.841 -4236474.511 23260661.785 10 0 59664 15300.00000 0 -8048165.237 -6676689.655 23265317.648 10 0 59664 16200.00000 0 -6729913.220 -9202516.005 22818137.970 10 0 59664 17100.00000 0 -5642991.527 -11747062.736 21927820.126 10 0 59664 18000.00000 0 -4801730.110 -14240450.808 20611661.724 10 0 59664 18900.00000 0 -4207534.674 -16612540.378 18895225.314 10 0 59664 19800.00000 0 -3849012.705 -18795682.603 16811843.291 10 0 59664 20700.00000 0 -3702648.831 -20727381.674 14401972.289 10 0 59664 21600.00000 0 -3734000.289 -22352756.617 11712409.212 10 0 59664 22500.00000 0 -3899361.443 -23626700.447 8795383.738 10 0 59664 23400.00000 0 -4147826.606 -24515646.642 5707544.708 10 0 59664 24300.00000 0 -4423663.491 -24998869.387 2508859.974 10 0 59664 25200.00000 0 -4668896.518 -25069263.300 -738548.942 10 0 59664 26100.00000 0 -4825990.238 -24733570.157 -3971614.455 10 0 59664 27000.00000 0 -4840518.866 -24012043.374 -7127549.048 10 0 59664 27900.00000 0 -4663708.346 -22937564.545 -10145065.845 10 0 59664 28800.00000 0 -4254742.941 -21554249.533 -12965569.446 10 0 59664 29700.00000 0 -3582738.160 -19915602.884 -15534293.759 10 0 59664 30600.00000 0 -2628296.015 -18082298.252 -17801364.662 10 0 59664 31500.00000 0 -1384576.258 -16119678.079 -19722766.838 10 0 59664 32400.00000 0 142162.462 -14095077.181 -21261196.329 10 0 59664 33300.00000 0 1932575.331 -12075082.181 -22386782.626 10 0 59664 34200.00000 0 3954798.527 -10122841.061 -23077666.643 10 0 59664 35100.00000 0 6165548.325 -8295534.809 -23320423.842 10 0 59664 36000.00000 0 8511707.484 -6642116.085 -23110324.584 10 0 59664 36900.00000 0 10932333.883 -5201408.685 -22451426.842 10 0 59664 37800.00000 0 13361008.848 -4000646.365 -21356499.445 10 0 59664 38700.00000 0 15728428.335 -3054511.249 -19846777.151 10 0 59664 39600.00000 0 17965129.791 -2364711.273 -17951551.888 10 0 59664 40500.00000 0 20004241.685 -1920113.584 -15707607.620 10 0 59664 41400.00000 0 21784141.473 -1697427.507 -13158509.241 10 0 59664 42300.00000 0 23250911.159 -1662407.752 -10353758.836 10 0 59664 43200.00000 0 24360487.931 -1771526.497 -7347835.326 10 0 59664 44100.00000 0 25080419.786 -1974043.200 -4199135.922 10 0 59664 45000.00000 0 25391152.455 -2214384.103 -968840.048 10 0 59664 45900.00000 0 25286793.542 -2434730.136 2280281.990 10 0 59664 46800.00000 0 24775321.785 -2577703.017 5485092.026 10 0 59664 47700.00000 0 23878232.635 -2589035.110 8583314.428 10 0 59664 48600.00000 0 22629635.256 -2420109.267 11514749.372 10 0 59664 49500.00000 0 21074839.056 -2030260.363 14222444.998 10 0 59664 50400.00000 0 19268489.426 -1388740.459 16653805.211 10 0 59664 51300.00000 0 17272331.190 -476263.751 18761611.466 10 0 59664 52200.00000 0 15152693.733 713934.658 20504938.758 10 0 59664 53100.00000 0 12977803.245 2175571.596 21849948.194 10 0 59664 54000.00000 0 10815034.460 3889343.291 22770541.204 10 0 59664 54900.00000 0 8728216.428 5823507.294 23248863.157 10 0 59664 55800.00000 0 6775104.394 7934995.366 23275647.097 10 0 59664 56700.00000 0 5005122.588 10171011.794 22850391.340 10 0 59664 57600.00000 0 3457471.217 12471051.344 21981367.796 10 0 59664 58500.00000 0 2159675.726 14769253.499 20685460.943 10 0 59664 59400.00000 0 1126637.790 16996995.610 18987840.513 10 0 59664 60300.00000 0 360226.571 19085617.533 16921473.993 10 0 59664 61200.00000 0 -150573.728 20969164.573 14526488.079 10 0 59664 62100.00000 0 -428967.297 22587034.663 11849391.096 10 0 59664 63000.00000 0 -509131.386 23886419.403 8942171.074 10 0 59664 63900.00000 0 -434534.263 24824437.007 5861286.812 10 0 59664 64800.00000 0 -255858.169 25369867.947 2666571.385 10 0 59664 65700.00000 0 -28615.671 25504420.473 -579930.605 10 0 59664 66600.00000 0 189439.195 25223473.051 -3815169.156 10 0 59664 67500.00000 0 340994.921 24536262.431 -6976314.682 10 0 59664 68400.00000 0 371847.518 23465509.458 -10001979.393 10 0 59664 69300.00000 0 233433.190 22046498.551 -12833410.085 10 0 59664 70200.00000 0 -114878.919 20325649.430 -15415629.035 10 0 59664 71100.00000 0 -703831.415 18358641.106 -17698500.736 10 0 59664 72000.00000 0 -1552743.903 16208166.678 -19637703.788 10 0 59664 72900.00000 0 -2668464.231 13941412.817 -21195589.348 10 0 59664 73800.00000 0 -4044850.738 11627369.037 -22341909.856 10 0 59664 74700.00000 0 -5662808.163 9334078.845 -23054404.272 10 0 59664 75600.00000 0 -7490876.814 7125946.900 -23319228.919 10 0 59664 76500.00000 0 -9486351.493 5061213.817 -23131225.907 10 0 59664 77400.00000 0 -11596884.517 3189703.179 -22494024.104 10 0 59664 78300.00000 0 -13762507.056 1550933.782 -21419970.685 10 0 59664 79200.00000 0 -15917985.452 172674.973 -19929894.396 10 0 59664 80100.00000 0 -17995415.035 -929995.497 -18052704.729 10 0 59664 81000.00000 0 -19926943.828 -1755092.650 -15824834.308 10 0 59664 81900.00000 0 -21647512.879 -2313568.611 -13289534.706 10 0 59664 82800.00000 0 -23097498.804 -2628607.435 -10496038.918 10 0 59664 83700.00000 0 -24225147.995 -2734400.917 -7498606.346 10 0 59664 84600.00000 0 -24988700.353 -2674457.788 -4355468.604 10 0 59664 85500.00000 0 -25358113.173 -2499518.354 -1127696.717 10 0 59665 0.00000 0 -25316312.535 -2265163.500 2121987.779 10 0 59665 900.00000 0 -24859919.221 -2029219.872 5330436.114 10 0 59665 1800.00000 0 -23999418.559 -1849072.055 8435301.148 10 0 59665 2700.00000 0 -22758766.826 -1778995.968 11376253.288 10 0 59665 3600.00000 0 -21174450.642 -1867627.317 14096154.938 10 0 59665 4500.00000 0 -19294038.943 -2155672.833 16542171.976 10 0 59665 5400.00000 0 -17174288.320 -2673961.716 18666800.246 10 0 59665 6300.00000 0 -14878881.117 -3441920.239 20428787.148 10 0 59665 7200.00000 0 -12475890.968 -4466534.461 21793930.629 10 0 59665 8100.00000 0 -10035081.564 -5741845.429 22735740.477 10 0 59665 9000.00000 0 -7625151.051 -7248998.830 23235949.574 10 0 59665 9900.00000 0 -5311036.572 -8956847.771 23284865.649 10 0 59665 10800.00000 0 -3151390.596 -10823084.303 22881557.138 10 0 59665 11700.00000 0 -1196333.289 -12795853.188 22033869.854 10 0 59665 12600.00000 0 514426.325 -14815781.239 20758274.205 10 0 59665 13500.00000 0 1953023.248 -16818338.227 19079545.905 10 0 59665 14400.00000 0 3104364.799 -18736431.413 17030286.102 10 0 59665 15300.00000 0 3966516.695 -20503125.726 14650289.900 10 0 59665 16200.00000 0 4550531.966 -22054376.303 11985775.195 10 0 59665 17100.00000 0 4879731.068 -23331659.232 9088486.350 10 0 59665 18000.00000 0 4988464.445 -24284390.381 6014689.973 10 0 59665 18900.00000 0 4920410.669 -24872030.814 2824082.114 10 0 59665 19800.00000 0 4726482.864 -25065790.456 -421371.851 10 0 59665 20700.00000 0 4462432.497 -24849858.187 -3658641.845 10 0 59665 21600.00000 0 4186252.600 -24222106.405 -6824858.587 10 0 59665 22500.00000 0 3955490.843 -23194240.423 -9858535.769 10 0 59665 23400.00000 0 3824586.660 -21791386.012 -12700764.808 10 0 59665 24300.00000 0 3842345.590 -20051132.365 -15296358.759 10 0 59665 25200.00000 0 4049658.015 -18022070.502 -17594923.104 10 0 59665 26100.00000 0 4477559.097 -15761888.010 -19551832.615 10 0 59665 27000.00000 0 5145712.269 -13335099.591 -21129095.622 10 0 59665 27900.00000 0 6061380.750 -10810507.854 -22296089.306 10 0 59665 28800.00000 0 7218931.028 -8258499.893 -23030152.109 10 0 59665 29700.00000 0 8599889.975 -5748291.737 -23317022.264 10 0 59665 30600.00000 0 10173554.147 -3345234.699 -23151114.258 10 0 59665 31500.00000 0 11898126.734 -1108295.039 -22535628.055 10 0 59665 32400.00000 0 13722335.596 912189.046 -21482488.959 10 0 59665 33300.00000 0 15587465.759 2676380.640 -20012119.079 10 0 59665 34200.00000 0 17429722.181 4156370.351 -18153044.442 10 0 59665 35100.00000 0 19182824.724 5337097.016 -15941344.878 10 0 59665 36000.00000 0 20780727.268 6216725.373 -13419956.770 10 0 59665 36900.00000 0 22160347.276 6806465.745 -10637841.735 10 0 59665 37800.00000 0 23264191.499 7129844.266 -7649036.969 10 0 59665 38700.00000 0 24042767.440 7221455.226 -4511605.469 10 0 59665 39600.00000 0 24456678.950 7125248.990 -1286506.580 10 0 59665 40500.00000 0 24478317.440 6892428.580 1963590.952 10 0 59665 41400.00000 0 24093077.102 6579044.707 5175530.033 10 0 59665 42300.00000 0 23300042.528 6243391.715 8286895.987 10 0 59665 43200.00000 0 22112119.395 5943315.458 11237232.640 10 0 59665 44100.00000 0 20555602.351 5733547.731 13969219.581 10 0 59665 45000.00000 0 18669198.010 5663180.677 16429787.280 10 0 59665 45900.00000 0 16502543.812 5773388.522 18571148.231 10 0 59665 46800.00000 0 14114284.623 6095493.408 20351724.140 10 0 59665 47700.00000 0 11569787.349 6649457.368 21736951.312 10 0 59665 48600.00000 0 8938588.797 7442864.462 22699949.013 10 0 59665 49500.00000 0 6291682.806 8470436.417 23222038.327 10 0 59665 50400.00000 0 3698759.265 9714102.593 23293101.897 10 0 59665 51300.00000 0 1225509.300 11143621.987 22911778.020 10 0 59665 52200.00000 0 -1068892.108 12717731.840 22085485.622 10 0 59665 53100.00000 0 -3134022.154 14385775.366 20830279.752 10 0 59665 54000.00000 0 -4930072.924 16089741.148 19170540.329 10 0 59665 54900.00000 0 -6429264.307 17766629.428 17138499.942 10 0 59665 55800.00000 0 -7616749.321 19351046.692 14773619.553 10 0 59665 56700.00000 0 -8490975.210 20777920.242 12121823.816 10 0 59665 57600.00000 0 -9063486.449 21985219.173 9234610.468 10 0 59665 58500.00000 0 -9358178.988 22916567.634 6168050.876 10 0 59665 59400.00000 0 -9410038.215 23523640.525 2981701.024 10 0 59665 60300.00000 0 -9263414.821 23768240.819 -262555.943 10 0 59665 61200.00000 0 -8969912.145 23623970.787 -3501712.797 10 0 59665 62100.00000 0 -8585975.037 23077426.530 -6672863.325 10 0 59665 63000.00000 0 -8170282.818 22128865.115 -9714425.287 10 0 59665 63900.00000 0 -7781057.143 20792315.831 -12567337.065 10 0 59665 64800.00000 0 -7473399.109 19095130.632 -15176204.574 10 0 59665 65700.00000 0 -7296768.498 17076992.084 -17490376.067 10 0 59665 66600.00000 0 -7292711.954 14788420.025 -19464923.980 10 0 59665 67500.00000 0 -7492936.224 12288838.947 -21061515.029 10 0 59665 68400.00000 0 -7917808.019 9644286.201 -22249152.062 10 0 59665 69300.00000 0 -8575344.000 6924856.115 -23004773.650 10 0 59665 70200.00000 0 -9460733.841 4201985.803 -23313700.282 10 0 59665 71100.00000 0 -10556417.033 1545694.803 -23169918.829 10 0 59665 72000.00000 0 -11832710.863 -978107.395 -22576199.982 10 0 59665 72900.00000 0 -13248964.077 -3310134.881 -21544046.387 10 0 59665 73800.00000 0 -14755188.711 -5399956.359 -20093472.289 10 0 59665 74700.00000 0 -16294102.476 -7207851.596 -18252618.590 10 0 59665 75600.00000 0 -17803496.833 -8706216.984 -16057210.288 10 0 59665 76500.00000 0 -19218831.986 -9880462.409 -13549866.213 10 0 59665 77400.00000 0 -20475950.216 -10729362.824 -10779274.018 10 0 59665 78300.00000 0 -21513793.708 -11264850.715 -7799245.964 10 0 59665 79200.00000 0 -22277012.503 -11511259.093 -4667673.620 10 0 59665 80100.00000 0 -22718352.505 -11504047.719 -1445401.837 10 0 59665 81000.00000 0 -22800722.526 -11288067.161 1804955.945 10 0 59665 81900.00000 0 -22498852.742 -10915434.867 5020237.654 10 0 59665 82800.00000 0 -21800474.028 -10443113.784 8137963.487 10 0 59665 83700.00000 0 -20706967.935 -9930296.764 11097553.307 10 0 59665 84600.00000 0 -19233459.317 -9435708.073 13841506.372 10 0 59665 85500.00000 0 -17408347.229 -9014936.742 16316520.022 99